Regional Weather Roundup
Issued by NWS Green Bay, WI

Home | Current Version | Previous Version | Graphics & Text | Print | Product List | Glossary Off
Versions: 1 2 3 4 5 6 7 8 9 10 11 12 13 14 15 16 17 18 19 20 21 22 23 24 25 26 27 28 29 30 31 32 33 34 35 36 37 38 39 40 41 42 43 44 45 46 47 48 49 50

000
ASUS43 KGRB 280611
RWRGRB

NORTH-CENTRAL AND NORTHEAST WISCONSIN REGIONAL WEATHER ROUNDUP
NATIONAL WEATHER SERVICE GREEN BAY WI
100 AM CDT WED SEP 28 2016

WIZ005-009-010>012-018-019-280700-
NORTH CENTRAL WISCONSIN

CITY           SKY/WX    TMP DP  RH WIND       PRES   REMARKS
IRONWOOD       LGT RAIN  52  51  97 N10       29.81R FOG
MANITOWISH WTR RAIN      49  49 100 N5        29.78S
ARBOR VITAE    DRIZZLE   52  51  97 NW6       29.78R
EAGLE RIVER    CLOUDY    49  49 100 CALM      29.76R
LAND O LAKES   CLOUDY    51  50  97 N7        29.79R
RHINELANDER    CLOUDY    49  49 100 NW7       29.78R
PHILLIPS       CLOUDY    47  47 100 NW6       29.80S
ANTIGO         CLOUDY    47  47  98 NW9       29.76S
TOMAHAWK       CLOUDY    47  46  95 NW5       29.79R
MERRILL        CLOUDY    48  47  97 N3        29.79R
$$

WIZ013-073-280700-
NORTHEAST WISCONSIN

CITY           SKY/WX    TMP DP  RH WIND       PRES   REMARKS
IRON MOUNTAIN  CLOUDY    50  46  86 NW5       29.74R
MARINETTE      CLOUDY    50  49  96 CALM      29.75R
OCONTO         CLOUDY    49  48  95 W3        29.75R
$$

WIZ017-030-035>037-045-280700-
CENTRAL WISCONSIN

CITY           SKY/WX    TMP DP  RH WIND       PRES   REMARKS
MEDFORD        DRIZZLE   47  47 100 NW10      29.79S
WAUSAU         CLOUDY    49  46  90 NW5       29.77R
MOSINEE        CLOUDY    46  46 100 NW7       29.79S
MARSHFIELD     CLOUDY    49  45  86 NW10      29.79R
WISC RAPIDS    CLOUDY    49  48  97 NW7       29.80R
STEVENS POINT  CLOUDY    47  46  99 NW3       29.79S
WAUPACA        CLOUDY    52  50  94 NW3       29.78S
SHAWANO        CLOUDY    51  48  89 CALM      29.76R
CLINTONVILLE   NOT AVBL
WAUTOMA        NOT AVBL
$$

WIZ038-039-048-051-280700-
FOX VALLEY

CITY           SKY/WX    TMP DP  RH WIND       PRES   REMARKS
NWS GREEN BAY  CLOUDY    50  50 100 W6        29.75S
APPLETON       CLOUDY    48  48 100 NW8       29.75R
OSHKOSH        CLOUDY    50  47  89 W7        29.76S
FOND DU LAC    CLOUDY    50  48  93 W6        29.77S
$$

WIZ022-050-052-280700-
EAST CENTRAL WISCONSIN

CITY           SKY/WX    TMP DP  RH WIND       PRES   REMARKS
EPHRAIM        CLOUDY    50  49  96 NW3       29.73R
WASHINGTON ISL MOCLDY    47  46  98 CALM      29.73R
STURGEON BAY   CLOUDY    52  49  89 NW5         N/A
MANITOWOC      MOCLDY    50  48  93 W6G20     29.76R
SHEBOYGAN      LGT RAIN  50  48  93 W3        29.76S
$$

LMZ563-521-522-541>543-280700-
LAKESHORE

STATION/POSITION TIME  TEMP    WIND        PRES    VSBY  WAVE
                       AIR SEA DIR/SP/G                  HT/PER
                 (UTC) (F)     (DEG/KT/KT) (MB)    (MI)  (FT/S)
SHEBOYGAN LKSHOR 0600   50     270/  9/ 10 1007.7R
KEWAUNEE LKSHORE 0500   51     290/  3/  6 1006.6R
NORTHPORT PIER   0500   53     290/  2/  5 1006.8R
N MID LAKE BUOY  0550   56 66   80/  6/  8 1006.5R         2/ 6
S GREEN BAY BUOY 0500   54 62  300/ 10/ 12 1006.7
SISTER BAY LKSHO 0538   54     340/ 10/ 11   N/A
CHAMBERS ISLAND  0500   52     290/  3/  6 1006.8R
MENOMINEE LKSHOR 0500   52     250/  5/  5 1006.2R
$$



USA.gov is the U.S. government's official web portal to all federal, state and local government web resources and services.